• In Hungary
  • List of Countries
  • For 7 days
  • Water Temperature
  • Satellite Maps
  • Weather Map
  • News
  • Weather Widgets
  • user-avatar
    Login

    Hourly Weather Cheboksary

    Today, 22 July, Sunday

    Time Temperature Precipitation Wind Pressure Humidity
    00:00 +19°C° 0 mm 3 mps 739 mmHg 94%
    01:00 +19°C° 0 mm 3 mps 739 mmHg 95%
    02:00 +19°C° 0 mm 3 mps 739 mmHg 96%
    03:00 +19°C° 0 mm 3 mps 739 mmHg 97%
    04:00 +19°C° 0 mm 3 mps 739 mmHg 96%
    05:00 +19°C° 0 mm 3 mps 739 mmHg 96%
    06:00 +19°C° 0 mm 3 mps 740 mmHg 95%
    07:00 +20°C° 0.1 mm 4 mps 740 mmHg 91%
    08:00 +21°C° 0.1 mm 4 mps 740 mmHg 88%
    09:00 +22°C° 0.1 mm 4 mps 740 mmHg 84%
    10:00 +23°C° 0.7 mm 5 mps 740 mmHg 82%
    11:00 +25°C° 0.7 mm 5 mps 740 mmHg 79%
    12:00 +24°C° 0.7 mm 6 mps 740 mmHg 77%
    13:00 +24°C° 0.5 mm 6 mps 740 mmHg 76%
    14:00 +24°C° 0.5 mm 6 mps 740 mmHg 76%
    15:00 +26°C° 0.5 mm 6 mps 740 mmHg 75%
    16:00 +24°C° 0.6 mm 6 mps 740 mmHg 79%
    17:00 +23°C° 0.6 mm 5 mps 740 mmHg 82%
    18:00 +22°C° 0.6 mm 5 mps 740 mmHg 85%
    19:00 +22°C° 0.2 mm 5 mps 740 mmHg 87%
    20:00 +21°C° 0.2 mm 5 mps 740 mmHg 88%
    21:00 +20°C° 0.2 mm 5 mps 740 mmHg 90%
    22:00 +19°C° 0 mm 5 mps 740 mmHg 91%
    23:00 +19°C° 0 mm 5 mps 740 mmHg 91%

    Tomorrow, 23 July, Monday

    Time Temperature Precipitation Wind Pressure Humidity
    00:00 +19°C° 0 mm 5 mps 740 mmHg 91%
    01:00 +19°C° 0.1 mm 5 mps 740 mmHg 91%
    02:00 +17°C° 0.1 mm 5 mps 740 mmHg 91%
    03:00 +17°C° 0.1 mm 5 mps 740 mmHg 91%
    04:00 +17°C° 0.4 mm 5 mps 740 mmHg 91%
    05:00 +17°C° 0.4 mm 5 mps 740 mmHg 91%
    06:00 +16°C° 0.4 mm 5 mps 740 mmHg 91%
    07:00 +17°C° 0 mm 5 mps 740 mmHg 88%
    08:00 +19°C° 0 mm 5 mps 740 mmHg 86%
    09:00 +20°C° 0 mm 5 mps 740 mmHg 83%
    10:00 +21°C° 0 mm 5 mps 740 mmHg 80%
    11:00 +22°C° 0 mm 5 mps 740 mmHg 77%
    12:00 +25°C° 0 mm 5 mps 740 mmHg 74%
    13:00 +25°C° 0.8 mm 5 mps 740 mmHg 75%
    14:00 +25°C° 0.8 mm 5 mps 740 mmHg 76%
    15:00 +26°C° 0.8 mm 4 mps 740 mmHg 77%
    16:00 +25°C° 0.4 mm 4 mps 740 mmHg 79%
    17:00 +25°C° 0.4 mm 4 mps 740 mmHg 81%
    18:00 +25°C° 0.4 mm 4 mps 740 mmHg 83%
    19:00 +23°C° 1.3 mm 5 mps 740 mmHg 85%
    20:00 +22°C° 1.3 mm 5 mps 741 mmHg 88%
    21:00 +21°C° 1.3 mm 5 mps 741 mmHg 91%
    22:00 +21°C° 0.4 mm 5 mps 741 mmHg 92%
    23:00 +20°C° 0.4 mm 5 mps 741 mmHg 92%

    Day after tomorrow, 24 July, Tuesday

    Time Temperature Precipitation Wind Pressure Humidity
    00:00 +20°C° 0.4 mm 4 mps 741 mmHg 93%
    01:00 +20°C° 0 mm 4 mps 741 mmHg 94%
    02:00 +19°C° 0 mm 4 mps 742 mmHg 94%
    03:00 +19°C° 0 mm 4 mps 742 mmHg 95%
    04:00 +19°C° 0 mm 4 mps 742 mmHg 94%
    05:00 +19°C° 0 mm 4 mps 742 mmHg 94%
    06:00 +19°C° 0 mm 4 mps 742 mmHg 93%
    07:00 +20°C° 0 mm 4 mps 742 mmHg 90%
    08:00 +22°C° 0 mm 4 mps 743 mmHg 86%
    09:00 +23°C° 0 mm 4 mps 743 mmHg 83%
    10:00 +25°C° 0.6 mm 4 mps 743 mmHg 79%
    11:00 +26°C° 0.6 mm 4 mps 743 mmHg 76%
    12:00 +27°C° 0.6 mm 5 mps 744 mmHg 72%
    13:00 +27°C° 1 mm 5 mps 744 mmHg 73%
    14:00 +27°C° 1 mm 5 mps 744 mmHg 74%
    15:00 +26°C° 1 mm 5 mps 744 mmHg 76%
    16:00 +25°C° 0.7 mm 4 mps 744 mmHg 79%
    17:00 +23°C° 0.7 mm 4 mps 744 mmHg 82%
    18:00 +22°C° 0.7 mm 4 mps 744 mmHg 86%
    19:00 +22°C° 0.1 mm 3 mps 745 mmHg 85%
    20:00 +21°C° 0.1 mm 3 mps 745 mmHg 84%
    21:00 +21°C° 0.1 mm 3 mps 745 mmHg 83%
    22:00 +20°C° 0 mm 3 mps 745 mmHg 83%
    23:00 +20°C° 0 mm 3 mps 745 mmHg 82%

    25 July, Wednesday

    Time Temperature Precipitation Wind Pressure Humidity
    00:00 +19°C° 0 mm 3 mps 745 mmHg 81%
    01:00 +19°C° 0 mm 4 mps 745 mmHg 78%
    02:00 +19°C° 0 mm 4 mps 745 mmHg 75%
    03:00 +19°C° 0 mm 5 mps 745 mmHg 72%
    04:00 +19°C° 0 mm 5 mps 745 mmHg 71%
    05:00 +19°C° 0 mm 5 mps 745 mmHg 70%
    06:00 +19°C° 0 mm 5 mps 745 mmHg 68%
    07:00 +20°C° 0 mm 5 mps 746 mmHg 67%
    08:00 +21°C° 0 mm 5 mps 746 mmHg 65%
    09:00 +22°C° 0 mm 5 mps 746 mmHg 64%
    10:00 +23°C° 0 mm 6 mps 746 mmHg 60%
    11:00 +26°C° 0 mm 6 mps 747 mmHg 55%
    12:00 +27°C° 0 mm 7 mps 747 mmHg 51%
    13:00 +28°C° 0 mm 6 mps 747 mmHg 51%
    14:00 +28°C° 0 mm 6 mps 747 mmHg 51%
    15:00 +28°C° 0 mm 6 mps 747 mmHg 52%
    16:00 +27°C° 0 mm 6 mps 747 mmHg 56%
    17:00 +26°C° 0 mm 5 mps 747 mmHg 61%
    18:00 +25°C° 0 mm 4 mps 747 mmHg 65%
    19:00 +23°C° 0 mm 4 mps 747 mmHg 65%
    20:00 +23°C° 0 mm 4 mps 747 mmHg 66%
    21:00 +22°C° 0 mm 4 mps 748 mmHg 66%
    22:00 +21°C° 0 mm 4 mps 748 mmHg 66%
    23:00 +21°C° 0 mm 4 mps 748 mmHg 66%

    26 July, Thursday

    Time Temperature Precipitation Wind Pressure Humidity
    00:00 +20°C° 0 mm 4 mps 748 mmHg 65%
    01:00 +20°C° 0 mm 4 mps 748 mmHg 67%
    02:00 +19°C° 0 mm 4 mps 748 mmHg 68%
    03:00 +18°C° 0 mm 4 mps 748 mmHg 70%
    04:00 +19°C° 0 mm 4 mps 748 mmHg 73%
    05:00 +19°C° 0 mm 4 mps 748 mmHg 75%
    06:00 +19°C° 0 mm 5 mps 748 mmHg 78%
    07:00 +21°C° 0 mm 5 mps 749 mmHg 73%
    08:00 +23°C° 0 mm 5 mps 749 mmHg 68%
    09:00 +26°C° 0 mm 6 mps 749 mmHg 62%
    10:00 +27°C° 0 mm 6 mps 749 mmHg 61%
    11:00 +27°C° 0 mm 6 mps 749 mmHg 60%
    12:00 +28°C° 0 mm 6 mps 749 mmHg 59%
    13:00 +28°C° 0 mm 6 mps 749 mmHg 60%
    14:00 +28°C° 0 mm 6 mps 749 mmHg 61%
    15:00 +28°C° 0 mm 6 mps 749 mmHg 62%
    16:00 +28°C° 0 mm 5 mps 749 mmHg 64%
    17:00 +28°C° 0 mm 5 mps 749 mmHg 66%
    18:00 +28°C° 0 mm 4 mps 749 mmHg 68%
    19:00 +27°C° 0 mm 4 mps 749 mmHg 70%
    20:00 +25°C° 0 mm 4 mps 750 mmHg 72%
    21:00 +23°C° 0 mm 4 mps 750 mmHg 74%
    22:00 +23°C° 0 mm 4 mps 750 mmHg 74%
    23:00 +22°C° 0 mm 4 mps 750 mmHg 74%

    27 July, Friday

    Time Temperature Precipitation Wind Pressure Humidity
    00:00 +22°C° 0 mm 4 mps 750 mmHg 74%
    01:00 +21°C° 0 mm 4 mps 751 mmHg 75%
    02:00 +21°C° 0 mm 4 mps 751 mmHg 75%
    03:00 +21°C° 0 mm 4 mps 751 mmHg 76%
    04:00 +20°C° 0 mm 4 mps 751 mmHg 77%
    05:00 +20°C° 0 mm 4 mps 751 mmHg 78%
    06:00 +20°C° 0 mm 4 mps 751 mmHg 79%
    07:00 +22°C° 0 mm 4 mps 752 mmHg 74%
    08:00 +25°C° 0 mm 4 mps 752 mmHg 70%
    09:00 +26°C° 0 mm 4 mps 752 mmHg 65%
    10:00 +27°C° 0 mm 4 mps 752 mmHg 61%
    11:00 +29°C° 0 mm 4 mps 752 mmHg 56%
    12:00 +30°C° 0 mm 4 mps 752 mmHg 52%
    13:00 +30°C° 0 mm 4 mps 752 mmHg 51%
    14:00 +30°C° 0 mm 4 mps 752 mmHg 51%
    15:00 +30°C° 0 mm 4 mps 751 mmHg 50%
    16:00 +30°C° 0 mm 4 mps 751 mmHg 55%
    17:00 +29°C° 0 mm 3 mps 751 mmHg 59%
    18:00 +29°C° 0 mm 3 mps 751 mmHg 64%
    19:00 +27°C° 0 mm 3 mps 751 mmHg 70%
    20:00 +25°C° 0 mm 3 mps 751 mmHg 75%
    21:00 +22°C° 0 mm 3 mps 751 mmHg 81%
    22:00 +22°C° 0 mm 3 mps 751 mmHg 83%
    23:00 +21°C° 0 mm 3 mps 751 mmHg 86%
    Show more